sat.trackr.live / text

‹ back to catalog

STARLINK-35152

NORAD 65530 · 2025-200L

PAYLOAD ACTIVE UNKNOWN

§ Identity

Operator
Country
US
Launch date
2025-09-06
Launch site
AFWTR
Launch vehicle
Mass (kg)
RCS (m²)

Purposes: comms

External: N2YO · Heavens-Above · Gunter

§ Orbital elements

Epoch: 2026-09-20T21:58:50.917440Z

Period
93.91 min
Inclination
97.2855°
Eccentricity
0.0000921
Mean motion
15.33453609 rev/d
Perigee alt
464.9 km
Apogee alt
466.1 km
Semi-major
6,843.7 km
B*
4.9145e-4
RAAN
330.2768°
Arg perigee
87.0248°
Mean anomaly
273.1101°
Rev number
5,870

§ Raw data

STARLINK-351521 65530U 25200L   26263.91586710  .00015828  00000+0  49145-3 0  99932 65530  97.2855 330.2768 0000921  87.0248 273.1101 15.33453609 58701

JSON: /api/v1/satellites/65530 · /tle

For live sub-satellite position, see the globe view (requires WebGL).

§ Visibility from observer

Set your observer location to see the next 7 days of passes ≥ 10°. The values pass through the URL so the page stays shareable.

No JS? Fill the form by hand. The geolocation button needs JavaScript.